FW4608 Weather Reports


time (UTC)temp
C
wind
direction
speed
KPH
gust
KPH
rain 1hr
cm
rain 24hr
cm
rain mn
cm
humidity
%
barometer
mb
20260502164052 21 243 0.0 4.8 0.33 0.41 0.41 93 1009.3
20260502163530 21 30 0.0 1.6 0.25 0.33 0.33 93 1009.4
20260502163036 21 15 0.0 1.6 0.23 0.30 0.30 93 1009.2
20260502162529 21 159 0.0 1.6 0.18 0.25 0.25 92 1009.3
20260502162029 21 267 0.0 1.6 0.10 0.18 0.18 92 1009.4
20260502161536 21 198 0.0 3.2 0.05 0.13 0.13 92 1009.8
20260502161035 21 158 0.0 3.2 0.03 0.10 0.10 92 1009.7
20260502160526 21 96 0.0 3.2 0.00 0.08 0.08 92 1009.8
20260502152011 21 117 0.0 1.6 0.08 0.08 0.08 92 1009.7
20260502151511 21 243 0.0 0.0 0.08 0.08 0.08 92 1010.0
20260502151009 21 243 0.0 0.0 0.08 0.08 0.08 92 1010.0
20260502150510 21 243 0.0 0.0 0.08 0.08 0.08 92 1010.0
20260502130552 20 5 0.0 0.0 0.00 0.00 0.00 89 1010.4
20260502130107 20 5 0.0 0.0 0.00 0.00 0.00 89 1010.3
20260502123543 20 108 0.0 1.6 0.00 0.00 0.00 89 1009.8
20260502123111 20 108 0.0 0.0 0.00 0.00 0.00 89 1009.8
20260502122544 20 108 0.0 0.0 0.00 0.00 0.00 89 1009.7
20260502122042 20 108 0.0 1.6 0.00 0.00 0.00 89 1009.7
20260502121546 20 108 0.0 1.6 0.00 0.00 0.00 89 1009.6
20260502121040 20 337 0.0 1.6 0.00 0.00 0.00 90 1009.6
20260502120538 20 332 0.0 1.6 0.00 0.00 0.00 90 1009.7
20260502115536 20 338 0.0 1.6 0.00 0.00 0.00 90 1009.6
20260502115034 20 75 0.0 0.0 0.00 0.00 0.00 91 1009.7
20260502114535 20 75 0.0 0.0 0.00 0.00 0.00 91 1009.6
20260502114033 20 75 0.0 0.0 0.00 0.00 0.00 91 1009.6
20260502113520 20 75 0.0 0.0 0.00 0.00 0.00 91 1009.5
20260502113020 20 58 0.0 0.0 0.00 0.00 0.00 92 1009.5
20260502112523 19 58 0.0 0.0 0.00 0.00 0.00 92 1009.7
20260502112027 19 322 0.0 0.0 0.00 0.00 0.00 92 1009.8
20260502111522 19 322 0.0 0.0 0.00 0.00 0.00 92 1009.5
20260502111018 19 322 0.0 0.0 0.00 0.00 0.00 92 1009.3
20260502110537 19 322 0.0 0.0 0.00 0.00 0.00 92 1009.2
20260502110045 19 322 0.0 0.0 0.00 0.00 0.00 92 1009.3
20260502105536 19 322 0.0 0.0 0.00 0.00 0.00 92 1009.1
20260502105036 18 326 0.0 0.0 0.00 0.00 0.00 92 1009.1
20260502104536 18 326 0.0 0.0 0.00 0.00 0.00 92 1008.9
20260502104035 18 326 0.0 0.0 0.00 0.00 0.00 92 1008.9
20260502103536 18 326 0.0 0.0 0.00 0.00 0.00 92 1008.8
20260502103034 18 326 0.0 0.0 0.00 0.00 0.00 92 1008.6
20260502102535 18 322 0.0 0.0 0.00 0.00 0.00 92 1008.6
20260502102037 18 322 0.0 0.0 0.00 0.00 0.00 92 1008.6
20260502101533 18 323 0.0 0.0 0.00 0.00 0.00 91 1008.5
20260502101032 18 322 0.0 0.0 0.00 0.00 0.00 91 1008.3
20260502100530 18 322 0.0 0.0 0.00 0.00 0.00 91 1008.2
20260502091525 19 322 0.0 1.6 0.00 0.00 0.00 91 1008.4
20260502091025 19 20 0.0 0.0 0.00 0.00 0.00 91 1007.7
20260502090520 19 20 0.0 0.0 0.00 0.00 0.00 91 1008.2
20260502071513 19 20 0.0 0.0 0.00 0.00 0.00 90 1010.5
20260502071011 19 20 0.0 0.0 0.00 0.00 0.00 90 1010.6
20260502070518 19 20 0.0 0.0 0.00 0.00 0.00 90 1010.5
20260502070014 19 20 0.0 0.0 0.00 0.00 0.00 90 1010.4
20260502065517 19 20 0.0 0.0 0.00 0.00 0.00 90 1010.2
20260502065012 19 20 0.0 0.0 0.00 0.00 0.00 90 1010.3
20260502064509 19 20 0.0 0.0 0.00 0.00 0.00 90 1010.2
20260502064009 19 20 0.0 0.0 0.00 0.00 0.00 90 1010.1
20260502063508 19 20 0.0 0.0 0.00 0.00 0.00 90 1010.1
20260502063007 19 20 0.0 0.0 0.00 0.00 0.00 89 1010.4
20260502062506 19 20 0.0 0.0 0.00 0.00 0.00 89 1010.4
20260502062006 19 20 0.0 0.0 0.00 0.00 0.00 89 1010.2
20260502061505 19 20 0.0 0.0 0.00 0.00 0.00 89 1010.4
20260502061005 19 20 0.0 0.0 0.00 0.00 0.00 89 1010.7
20260502060504 19 20 0.0 0.0 0.00 0.00 0.00 89 1010.8
20260502060005 19 20 0.0 0.0 0.00 0.00 0.00 89 1011.1
20260502055604 19 20 0.0 0.0 0.00 0.00 0.00 89 1011.0
20260502055018 19 20 0.0 0.0 0.00 0.00 0.00 89 1010.8
20260502054556 19 20 0.0 0.0 0.00 0.00 0.00 88 1010.9
20260502054054 19 20 0.0 0.0 0.00 0.00 0.00 88 1011.0
20260502053555 19 20 0.0 0.0 0.00 0.00 0.00 88 1011.1
20260502053051 19 20 0.0 0.0 0.00 0.00 0.00 88 1011.0
20260502052551 19 20 0.0 0.0 0.00 0.00 0.00 88 1011.1
20260502052059 20 20 0.0 0.0 0.00 0.00 0.00 88 1011.2
20260502051551 20 20 0.0 0.0 0.00 0.00 0.00 88 1011.3
20260502051051 20 20 0.0 0.0 0.00 0.00 0.00 87 1011.3
20260502050600 20 20 0.0 0.0 0.00 0.00 0.00 87 1011.5
20260502050045 20 20 0.0 0.0 0.00 0.00 0.00 87 1011.4
20260502045548 20 20 0.0 0.0 0.00 0.00 0.00 87 1011.3
20260502045042 20 20 0.0 0.0 0.00 0.00 0.00 87 1011.4
20260502044542 20 20 0.0 0.0 0.00 0.00 0.00 87 1011.3
20260502044044 20 20 0.0 0.0 0.00 0.00 0.00 87 1011.3
20260502043538 20 20 0.0 0.0 0.00 0.00 0.00 87 1011.3
20260502043037 20 20 0.0 0.0 0.00 0.00 0.00 86 1011.4
20260502042537 21 20 0.0 0.0 0.00 0.00 0.00 86 1011.4
20260502042037 21 20 0.0 0.0 0.00 0.00 0.00 86 1011.4
20260502041535 21 20 0.0 0.0 0.00 0.00 0.00 86 1011.6
20260502041030 21 20 0.0 0.0 0.00 0.00 0.00 85 1011.4
20260502040529 21 20 0.0 1.6 0.00 0.00 0.00 85 1011.5
20260502040029 21 20 0.0 1.6 0.00 0.00 0.00 85 1011.6
20260502035528 21 20 0.0 1.6 0.00 0.00 0.00 85 1011.5
20260502035026 21 25 0.0 1.6 0.00 0.00 0.00 85 1011.4
20260502034526 21 304 0.0 1.6 0.00 0.00 0.00 85 1011.2
20260502034026 21 304 0.0 4.8 0.00 0.00 0.00 85 1011.2
20260502033530 21 72 0.0 1.6 0.00 0.00 0.00 85 1011.4
20260502033026 21 91 0.0 3.2 0.00 0.00 0.00 85 1011.4
20260502032526 21 245 0.0 1.6 0.00 0.00 0.00 85 1011.4
20260502032024 21 207 0.0 1.6 0.00 0.00 0.00 85 1011.3
20260502031524 21 207 0.0 1.6 0.00 0.00 0.00 85 1011.3
20260502031026 21 308 0.0 3.2 0.00 0.00 0.00 85 1011.5
20260502030522 21 23 0.0 3.2 0.00 0.00 0.00 84 1010.7
20260502030030 21 293 0.0 3.2 0.00 0.00 0.00 84 1010.9
20260502025524 21 27 0.0 1.6 0.00 0.00 0.00 84 1011.4
20260502025024 21 304 0.0 4.8 0.00 0.00 0.00 84 1011.4
20260502024519 21 100 0.0 4.8 0.00 0.00 0.00 84 1011.4
20260502024018 21 335 0.0 3.2 0.00 0.00 0.00 84 1011.7
20260502023517 22 214 0.0 4.8 0.00 0.00 0.00 84 1011.7
20260502023020 22 328 0.0 4.8 0.00 0.00 0.00 84 1011.7
20260502022517 22 308 0.0 3.2 0.00 0.00 0.00 85 1012.1
20260502022018 22 356 0.0 4.8 0.00 0.00 0.00 85 1011.9
20260502021514 22 248 0.0 3.2 0.00 0.00 0.00 86 1011.3
20260502021013 22 319 0.0 3.2 0.00 0.00 0.00 86 1011.6
20260502020512 22 285 0.0 1.6 0.00 0.00 0.00 86 1011.9
20260502020014 22 268 0.0 1.6 0.00 0.00 0.00 86 1011.9
20260502015516 22 263 0.0 3.2 0.00 0.00 0.00 86 1011.7
20260502015010 22 275 0.0 3.2 0.00 0.00 0.00 86 1011.9
20260502014008 22 163 0.0 3.2 0.00 0.00 0.00 85 1011.3
20260502013507 23 167 0.0 6.4 0.00 0.00 0.00 85 1010.8
20260502013011 23 243 0.0 6.4 0.00 0.00 0.00 84 1010.8
20260502012510 23 55 0.0 4.8 0.00 0.00 0.00 83 1011.2
20260502012004 23 124 0.0 3.2 0.00 0.00 0.00 83 1011.2
20260502011505 23 263 0.0 3.2 0.00 0.00 0.00 84 1011.1
20260502011004 23 115 0.0 3.2 0.00 0.00 0.00 83 1010.9
20260502010607 23 140 0.0 3.2 0.00 0.00 0.00 82 1011.0
20260502010107 23 101 0.0 3.2 0.00 0.00 0.00 82 1010.9
20260502010005 23 307 0.0 1.6 0.00 0.00 0.00 82 1011.0
20260502005600 24 121 0.0 1.6 0.00 0.00 0.00 81 1011.2
20260502005059 24 121 0.0 3.2 0.00 0.00 0.00 81 1011.3
20260502004606 24 304 0.0 3.2 0.00 0.00 0.00 80 1011.0
20260502004505 24 304 0.0 3.2 0.00 0.00 0.00 80 1011.1
20260502004058 24 264 0.0 1.6 0.00 0.00 0.00 79 1011.0
20260502003557 24 255 0.0 1.6 0.00 0.00 0.00 80 1011.0
20260502003059 24 245 0.0 3.2 0.00 0.00 0.00 80 1011.0
20260502002557 25 323 0.0 3.2 0.00 0.00 0.00 80 1010.7
20260502002054 25 324 0.0 1.6 0.00 0.00 0.00 81 1010.6
20260502001559 25 323 0.0 3.2 0.00 0.00 0.00 80 1010.5
20260502001053 25 319 0.0 4.8 0.00 0.00 0.00 80 1010.3
20260502000554 25 278 0.0 4.8 0.00 0.00 0.00 80 1010.3
20260502000106 25 304 0.0 4.8 0.00 0.00 0.00 79 1010.2
20260501235554 25 132 0.0 3.2 0.00 0.00 0.00 78 1010.2
20260501235052 25 279 0.0 4.8 0.00 0.00 0.00 76 1010.2
20260501234548 25 269 0.0 4.8 0.00 0.00 0.00 76 1010.0
20260501234047 25 301 0.0 4.8 0.00 0.00 0.00 76 1009.9
20260501233551 26 255 0.0 4.8 0.00 0.00 0.00 76 1009.7
20260501233049 26 274 0.0 1.6 0.00 0.00 0.00 76 1009.7
20260501232546 26 153 0.0 1.6 0.00 0.00 0.00 75 1009.6
20260501232047 26 293 0.0 3.2 0.00 0.00 0.00 75 1009.6
20260501231559 26 32 0.0 3.2 0.00 0.00 0.00 74 1009.6
20260501231043 26 262 0.0 4.8 0.00 0.00 0.00 73 1009.7
20260501230542 27 353 0.0 4.8 0.00 0.00 0.00 72 1009.5
20260501230046 27 108 0.0 3.2 0.00 0.00 0.00 71 1009.4
20260501225541 27 332 0.0 4.8 0.00 0.00 0.00 69 1009.3
20260501225040 27 316 0.0 4.8 0.00 0.00 0.00 69 1009.2
20260501224546 28 71 0.0 4.8 0.00 0.00 0.00 66 1009.0
20260501224039 28 321 0.0 1.6 0.00 0.00 0.00 64 1009.0
20260501223543 28 312 0.0 1.6 0.00 0.00 0.00 62 1008.9
20260501223047 28 146 0.0 1.6 0.00 0.00 0.00 63 1008.9
20260501222537 28 146 0.0 1.6 0.00 0.00 0.00 61 1009.0
20260501222037 28 311 0.0 1.6 0.00 0.00 0.00 62 1008.6
20260501221535 28 311 0.0 3.2 0.00 0.00 0.00 62 1008.8
20260501221033 29 335 0.0 3.2 0.00 0.00 0.00 62 1008.6
20260501220533 29 338 0.0 1.6 0.00 0.00 0.00 61 1008.6
20260501220036 29 115 0.0 1.6 0.00 0.00 0.00 61 1008.7
20260501215531 29 242 0.0 1.6 0.00 0.00 0.00 61 1008.9
20260501215029 30 242 0.0 1.6 0.00 0.00 0.00 61 1009.1
20260501214530 30 242 0.0 1.6 0.00 0.00 0.00 62 1008.9
20260501214028 30 242 0.0 4.8 0.00 0.00 0.00 61 1009.1
20260501213531 30 242 0.0 4.8 0.00 0.00 0.00 59 1008.9
20260501213044 31 175 0.0 1.6 0.00 0.00 0.00 58 1009.1
20260501212527 31 317 0.0 3.2 0.00 0.00 0.00 57 1008.9
20260501212031 31 70 0.0 3.2 0.00 0.00 0.00 57 1008.9
20260501211529 31 233 0.0 3.2 0.00 0.00 0.00 59 1008.8
20260501211030 31 295 0.0 3.2 0.00 0.00 0.00 58 1008.6
20260501210525 31 141 0.0 1.6 0.00 0.00 0.00 58 1008.7
20260501210038 31 148 0.0 1.6 0.00 0.00 0.00 61 1008.6
20260501205527 31 178 0.0 1.6 0.00 0.00 0.00 57 1008.6
20260501205024 32 285 0.0 3.2 0.00 0.00 0.00 57 1008.6
20260501204526 32 290 0.0 3.2 0.00 0.00 0.00 55 1008.8
20260501204025 32 202 0.0 1.6 0.00 0.00 0.00 55 1008.8
20260501203524 32 281 0.0 3.2 0.00 0.00 0.00 57 1008.7
20260501203018 31 236 0.0 4.8 0.00 0.00 0.00 57 1008.7
20260501202517 32 270 0.0 4.8 0.00 0.00 0.00 56 1009.0
20260501202019 32 149 0.0 6.4 0.00 0.00 0.00 56 1009.0
20260501201519 32 340 0.0 4.8 0.00 0.00 0.00 56 1009.0
20260501201022 32 233 0.0 6.4 0.00 0.00 0.00 55 1009.2
20260501200612 32 304 1.6 6.4 0.00 0.00 0.00 55 1009.4
20260501200017 32 303 0.0 8.0 0.00 0.00 0.00 56 1009.3
20260501195517 31 265 1.6 9.7 0.00 0.00 0.00 60 1009.3
20260501195007 31 271 0.0 12.9 0.00 0.00 0.00 59 1009.6
20260501194511 31 244 3.2 12.9 0.00 0.00 0.00 58 1010.0
20260501194010 31 232 1.6 8.0 0.00 0.00 0.00 60 1010.0
20260501193504 31 251 1.6 4.8 0.00 0.00 0.00 57 1010.1
20260501193005 31 182 0.0 4.8 0.00 0.00 0.00 60 1010.1
20260501192505 31 304 1.6 12.9 0.00 0.00 0.00 58 1010.2
20260501192004 31 285 4.8 12.9 0.00 0.00 0.00 60 1010.2
20260501191506 31 231 3.2 11.3 0.00 0.00 0.00 60 1010.1
20260501191002 30 236 0.0 8.0 0.00 0.00 0.00 59 1010.3
20260501190503 30 261 1.6 9.7 0.00 0.00 0.00 60 1010.3
20260501190134 30 239 3.2 9.7 0.00 0.00 0.00 60 1010.4
20260501185558 30 269 1.6 9.7 0.00 0.00 0.00 61 1010.4
20260501185501 30 305 1.6 9.7 0.00 0.00 0.00 60 1010.4
20260501185057 30 134 0.0 8.0 0.00 0.00 0.00 59 1010.4
20260501184612 30 238 1.6 11.3 0.00 0.00 0.00 61 1010.6
20260501184053 30 221 0.0 11.3 0.00 0.00 0.00 63 1010.6
20260501183555 30 328 1.6 11.3 0.00 0.00 0.00 60 1010.6
20260501183056 30 72 4.8 12.9 0.00 0.00 0.00 63 1010.9
20260501182555 30 231 4.8 11.3 0.00 0.00 0.00 61 1010.9
20260501182051 30 272 3.2 9.7 0.00 0.00 0.00 63 1010.8
20260501181550 29 254 0.0 8.0 0.00 0.00 0.00 64 1010.8
20260501181047 29 276 0.0 8.0 0.00 0.00 0.00 63 1010.9
20260501180549 29 300 0.0 12.9 0.00 0.00 0.00 63 1010.9
20260501175542 29 224 1.6 11.3 0.00 0.00 0.00 62 1010.9
20260501175041 29 264 1.6 12.9 0.00 0.00 0.00 64 1011.1
20260501174543 29 242 0.0 12.9 0.00 0.00 0.00 65 1010.8
20260501174046 30 146 3.2 11.3 0.00 0.00 0.00 64 1010.9
20260501173541 30 214 1.6 11.3 0.00 0.00 0.00 64 1010.9
20260501173039 29 293 1.6 6.4 0.00 0.00 0.00 66 1011.1
20260501172536 29 237 0.0 8.0 0.00 0.00 0.00 66 1011.3
20260501172036 28 260 1.6 9.7 0.00 0.00 0.00 67 1011.5
20260501171535 28 240 1.6 9.7 0.00 0.00 0.00 67 1011.5
20260501171033 29 246 3.2 9.7 0.00 0.00 0.00 67 1011.5
20260501170537 29 239 0.0 6.4 0.00 0.00 0.00 66 1011.6
20260501170044 28 97 1.6 9.7 0.00 0.00 0.00 67 1011.6
20260501165533 28 296 1.6 9.7 0.00 0.00 0.00 69 1011.9